Theta_e
341 348 347 345 344 346 349 348 346 348 348 348 345 345 338 339 329 326 326 327 328 333 329 327 349 340 340 343 339 342 341 342 342 343 341 338 339 340 338 339 339 339 338 335 334 334 334 335 335 337 337 338 338 338 337 337 337 337 337 337 336 337 337 336 337 337 337 337 337 336 337 338 339 340
347 343 342 343 352 348 344 343 343 343 346 345 345 343 342 341 334 331 326 326 332 331 334 330 338 347 344 343 343 342 341 344 342 338 337 336 337 340 337 337 338 338 337 336 334 333 333 333 333 334 336 338 337 337 338 338 337 338 337 337 337 338 338 336 336 336 336 337 337 337 337 337 337 339
344 343 342 347 346 349 349 345 344 348 346 346 344 344 343 341 339 335 333 326 334 337 330 335 334 338 347 340 340 341 341 342 341 338 338 338 341 341 339 337 337 336 336 336 335 333 332 332 333 333 334 334 336 337 336 335 336 336 336 337 337 337 336 335 335 336 336 336 337 337 337 337 337 338
344 342 341 342 343 346 348 347 345 349 348 346 349 346 344 344 341 338 334 329 328 340 334 334 337 336 334 343 344 343 340 342 345 340 340 339 342 339 339 339 338 336 335 335 334 333 332 331 332 333 333 333 333 334 335 335 335 336 335 335 335 334 334 333 334 335 335 335 336 337 338 338 338 338
344 348 348 347 346 347 345 344 343 343 347 348 346 343 343 340 340 338 336 330 330 335 340 338 336 337 337 333 337 335 336 339 339 342 339 339 337 337 338 338 339 336 335 334 333 333 332 331 331 332 333 333 334 334 334 333 332 332 332 333 332 332 333 332 333 333 334 334 336 337 337 338 338 338
345 347 344 344 347 347 344 343 342 343 343 344 340 340 338 337 338 340 336 335 332 329 335 336 340 338 338 332 340 337 338 337 342 342 339 338 338 338 337 335 336 335 335 334 333 333 332 331 331 331 332 333 333 333 332 332 330 331 331 331 331 331 330 330 330 331 331 333 333 334 334 335 336 337
346 343 342 342 345 345 342 341 340 342 346 345 339 340 343 341 342 343 341 337 331 329 330 334 332 333 336 335 334 336 336 337 340 337 337 336 337 338 336 335 335 335 334 333 333 333 332 332 331 331 330 330 331 330 330 330 329 330 329 328 328 328 329 329 329 329 331 331 332 333 334 334 335 336
342 341 342 341 341 343 341 342 342 341 341 340 340 341 345 346 344 344 344 340 334 333 329 331 332 335 334 335 337 339 339 337 336 336 335 336 334 334 338 336 335 335 333 332 331 331 332 331 330 330 329 329 328 328 328 328 327 326 326 326 326 325 325 325 324 326 327 328 328 330 331 332 333 333
344 343 341 341 341 341 339 341 340 341 340 339 339 342 342 341 342 342 340 338 336 332 328 330 333 334 334 335 336 337 334 336 337 337 335 335 334 335 335 334 334 333 332 332 332 330 330 330 330 329 329 328 327 327 327 326 324 324 323 322 322 323 324 323 323 324 324 324 325 326 328 330 331 330
344 343 343 344 344 345 342 343 342 342 342 341 339 338 346 341 342 339 339 339 337 334 331 330 330 333 334 335 335 336 337 334 332 332 333 334 333 332 332 333 334 334 334 333 334 334 331 329 329 329 328 328 326 325 325 325 324 322 320 318 319 322 321 320 321 322 322 322 321 322 324 327 328 329
342 342 342 345 346 343 342 338 337 339 340 338 336 339 340 341 341 339 337 337 335 334 332 332 332 331 335 335 331 335 337 336 334 330 329 328 331 334 335 334 336 333 332 333 332 331 331 331 330 328 327 326 327 326 324 323 321 320 319 318 317 317 317 318 318 318 319 320 321 321 321 321 323 327
338 340 341 340 341 340 341 338 337 338 337 344 340 341 340 339 337 335 334 332 333 332 331 329 327 329 328 330 333 335 334 332 333 333 330 326 327 328 331 331 330 332 332 331 331 331 330 329 330 328 327 327 326 324 325 326 326 324 320 319 321 321 318 317 317 317 317 317 318 319 320 321 321 323
343 345 344 342 339 340 346 343 342 343 342 340 339 338 339 338 336 334 332 331 329 329 329 327 328 328 328 328 329 328 328 327 326 330 330 327 328 329 329 330 334 333 329 329 329 330 330 329 330 330 330 331 332 331 330 329 329 326 322 321 322 322 320 319 318 318 317 317 317 316 318 319 319 320
344 343 341 340 343 345 348 346 344 341 338 339 340 341 340 338 336 335 333 332 331 329 327 326 325 324 324 325 326 326 327 328 330 327 328 325 327 328 327 328 330 334 332 328 327 329 332 331 329 330 329 331 333 332 331 330 330 328 325 324 324 323 322 320 318 317 317 317 316 316 315 316 317 318
341 341 340 340 341 347 347 343 345 342 340 337 336 336 337 337 334 331 330 330 331 330 329 329 327 325 324 325 327 327 327 327 326 328 328 327 327 325 322 320 326 334 331 330 328 327 331 331 328 329 329 329 330 331 330 329 329 327 326 326 326 325 324 323 321 319 317 317 317 316 315 315 316 317
341 340 339 340 344 345 344 343 343 342 340 335 335 337 336 335 334 334 334 332 330 330 329 328 328 327 325 326 327 326 325 329 331 330 329 328 326 324 322 322 321 329 331 326 325 324 328 329 327 326 328 330 330 330 329 328 325 324 324 324 324 323 323 323 324 323 320 319 320 319 319 318 318 318
341 342 341 342 344 343 338 336 336 340 342 342 341 341 341 338 334 328 328 329 332 331 327 326 326 326 326 325 327 330 332 331 328 328 327 327 326 325 323 322 322 325 329 324 321 320 324 327 326 325 328 329 329 329 327 326 326 325 325 324 323 323 322 322 321 322 322 321 319 318 318 319 319 319
340 341 340 340 342 335 335 334 336 341 341 342 341 339 336 335 336 334 329 325 325 329 330 328 326 327 329 328 330 334 333 329 327 325 323 324 322 321 320 322 323 325 328 324 322 320 323 326 325 323 324 327 327 327 326 326 325 324 321 320 320 320 320 320 320 320 320 320 320 318 316 315 314 315
339 339 339 340 340 336 336 334 335 337 341 340 340 339 336 334 333 333 333 333 332 333 332 331 331 331 332 332 333 333 333 330 327 326 323 322 322 322 324 324 325 324 327 326 324 318 322 325 321 321 322 323 322 323 323 324 323 322 321 321 320 320 320 320 320 319 319 319 318 317 316 315 315 314
345 344 343 343 340 337 337 334 331 334 339 339 336 334 333 333 334 333 333 330 331 335 333 334 334 333 333 328 334 331 325 325 327 326 324 324 323 322 320 318 320 320 324 326 323 319 318 322 318 317 320 320 319 322 322 321 322 321 321 321 320 319 318 319 320 320 320 319 319 318 316 314 313 313
344 342 343 343 341 339 338 333 325 328 336 335 333 331 330 331 330 331 333 329 326 326 325 323 323 321 319 318 316 315 316 321 322 323 320 319 319 318 317 318 318 318 321 322 323 319 315 318 318 317 319 319 318 318 318 319 320 321 321 321 320 319 317 318 318 319 319 319 319 318 317 315 314 314
342 342 346 345 342 340 339 325 322 325 330 330 330 329 328 328 328 329 331 329 332 324 322 322 321 321 320 320 318 318 317 316 318 320 317 319 320 317 318 316 317 318 320 321 322 316 315 318 319 316 316 317 317 316 316 318 321 322 322 322 320 318 318 317 317 318 318 318 318 318 316 315 315 318
336 340 344 341 340 338 336 318 319 320 327 330 330 330 329 327 327 328 327 327 326 326 325 326 330 330 328 331 331 331 324 320 321 322 321 322 321 319 319 318 318 316 317 320 324 314 314 314 315 314 311 309 313 316 318 321 322 323 324 325 325 321 319 317 316 314 316 316 317 316 315 314 314 318
339 341 341 335 325 323 317 312 313 314 317 329 330 330 327 326 326 320 321 326 325 324 323 322 323 324 325 324 325 325 325 326 330 326 325 325 324 322 321 321 317 313 312 318 318 313 313 314 312 314 312 309 308 315 320 320 322 323 323 322 322 322 322 320 319 317 315 314 315 315 314 313 313 318
337 337 337 336 320 314 312 309 307 307 309 315 323 325 324 322 316 315 320 321 321 320 321 322 323 323 325 326 325 323 323 323 323 324 325 326 326 322 315 312 310 309 311 314 318 315 312 313 311 313 313 315 316 316 318 320 321 321 322 322 321 323 323 323 322 324 320 318 316 314 314 313 312 314
335 336 338 336 321 312 309 307 304 303 306 309 318 320 305 307 311 317 318 319 319 319 318 318 320 321 321 319 319 320 321 321 322 319 318 318 317 316 315 313 310 309 310 316 317 316 314 313 313 313 315 315 315 317 316 317 319 321 322 322 322 323 324 323 323 324 325 325 326 322 323 318 315 314
338 340 340 336 314 309 305 302 301 302 305 307 314 303 303 307 308 316 317 319 318 318 319 320 320 321 321 319 318 319 320 320 322 319 318 317 316 316 316 317 316 315 316 318 320 319 316 315 317 317 316 317 315 316 316 315 316 321 321 321 322 323 324 324 323 324 324 324 325 320 318 317 317 317
338 339 338 329 307 303 298 299 301 304 306 316 302 301 305 308 313 316 316 315 317 319 318 320 319 318 319 320 320 320 320 320 320 319 318 317 317 317 317 318 318 318 317 316 317 317 318 318 319 321 320 318 315 313 313 317 319 319 318 321 322 322 323 324 324 324 325 325 325 325 325 326 329 326
339 325 310 302 302 301 298 301 303 304 304 304 304 303 305 313 316 316 316 317 319 320 320 318 317 317 317 317 318 322 321 319 318 319 318 318 317 317 317 317 319 320 320 319 319 320 322 322 320 322 321 319 316 316 316 315 318 318 319 319 318 320 322 323 323 323 323 323 323 324 324 326 327 329
309 306 304 303 303 304 305 309 314 319 319 311 308 309 310 314 314 315 316 317 318 319 318 316 314 314 315 317 319 318 317 316 316 316 316 316 315 315 314 313 314 316 318 318 319 321 323 322 322 321 319 319 320 317 318 318 317 319 319 319 319 321 322 321 321 321 322 321 322 322 323 325 327 329
315 310 312 312 310 312 310 315 318 318 319 319 315 314 315 315 315 317 319 319 320 318 318 317 315 316 317 319 317 316 317 318 319 318 317 314 312 313 312 312 312 313 317 320 321 323 323 322 323 323 319 319 320 319 319 319 317 317 318 319 319 314 317 319 320 320 321 321 321 321 322 324 327 330
322 320 314 312 318 319 317 316 318 318 320 321 321 318 318 318 318 320 322 323 318 320 319 318 317 318 319 315 313 313 314 312 313 316 316 314 313 313 311 309 310 312 314 318 322 324 327 324 324 323 322 320 318 319 320 319 317 317 317 319 318 318 319 318 318 319 320 320 319 319 320 323 325 328
324 323 320 320 318 319 318 317 317 316 318 320 321 321 320 320 319 319 319 318 319 317 316 316 319 315 313 312 313 313 311 313 314 316 315 315 312 312 312 310 310 312 312 313 316 319 321 323 325 324 322 321 321 321 319 316 316 317 317 317 317 316 317 317 317 317 319 318 317 318 318 322 325 328
324 322 320 319 319 319 319 319 319 319 320 320 320 320 319 319 318 318 319 321 323 320 319 315 312 311 310 308 311 311 309 310 313 313 311 310 312 312 310 309 310 312 313 313 314 316 319 321 322 322 322 322 323 323 320 317 316 317 318 317 316 315 316 317 317 317 318 317 317 316 316 318 324 331
325 324 323 322 322 322 322 321 320 320 322 321 321 319 319 318 318 319 315 312 313 313 314 314 311 309 309 310 309 308 310 309 308 308 311 312 313 310 309 308 308 310 311 312 313 316 318 317 317 318 318 317 316 318 324 322 318 317 317 317 316 315 315 316 316 316 317 317 318 315 314 315 316 322
325 324 324 324 326 324 320 319 319 318 318 319 325 320 320 317 319 316 314 316 314 315 315 310 310 311 309 308 308 310 309 308 307 309 309 309 308 309 309 309 309 309 310 311 312 314 317 316 317 316 313 312 311 310 312 321 322 319 316 315 316 315 315 315 316 316 316 315 316 315 311 311 313 318
322 324 324 324 324 320 318 320 319 319 318 321 319 322 323 320 317 322 317 314 319 314 313 310 308 309 309 309 310 309 308 308 307 308 307 308 309 309 308 308 308 308 308 309 311 313 317 316 318 316 312 310 309 308 310 316 316 317 319 316 315 315 314 314 314 313 314 315 314 314 312 312 313 317
321 323 326 325 323 325 321 319 319 326 322 320 320 320 319 321 319 320 321 317 316 315 312 313 309 308 306 310 308 306 307 308 308 307 307 307 307 308 307 305 306 307 307 308 310 315 318 317 317 316 313 310 308 308 308 313 315 316 316 317 314 314 315 313 312 311 312 313 312 313 313 312 313 315
325 322 322 323 323 321 320 323 322 320 321 323 323 320 320 320 319 320 313 312 311 309 311 314 312 308 308 307 307 307 307 308 307 306 306 307 307 306 306 306 306 306 306 307 311 315 316 315 317 317 315 312 310 310 312 311 313 318 318 312 314 314 314 313 311 312 311 310 311 312 313 315 315 317
322 322 322 321 324 329 326 323 325 327 320 323 321 322 321 316 317 316 315 312 311 311 308 305 307 304 307 309 308 307 307 308 306 305 306 306 306 306 306 307 306 306 307 308 309 311 314 314 317 318 316 316 317 318 319 319 319 320 317 316 309 311 314 313 312 311 310 310 310 308 307 309 308 310
322 322 321 326 326 324 324 321 320 323 322 323 323 317 321 320 319 314 312 316 315 311 305 304 304 305 307 309 309 307 306 305 305 305 306 306 306 306 307 307 307 308 306 306 308 310 313 316 320 317 321 320 321 321 317 312 310 311 313 315 310 310 309 311 312 312 310 310 308 307 305 305 305 308
322 322 329 326 324 323 323 324 325 324 320 325 321 319 318 323 314 312 312 312 311 311 308 305 306 308 309 311 309 308 306 305 305 306 306 304 305 306 308 307 305 306 306 306 308 311 316 320 322 320 320 319 318 314 312 310 309 311 312 313 314 311 311 311 311 311 313 309 307 305 304 305 306 304
323 325 326 327 327 325 324 325 323 324 321 323 322 321 319 319 315 313 312 313 311 307 305 307 311 313 311 310 311 309 306 304 305 305 304 305 305 305 305 305 306 306 307 308 310 313 314 317 319 319 318 317 317 316 311 310 311 311 311 311 311 312 314 313 312 310 311 312 310 308 307 305 303 300
324 322 325 327 326 326 324 322 321 326 322 319 316 320 320 313 311 314 314 309 308 309 313 314 313 311 310 312 311 307 306 306 305 305 305 305 306 306 306 306 306 307 307 308 309 309 311 314 317 320 317 315 315 313 311 311 310 311 310 310 310 309 310 312 312 311 311 311 309 309 308 309 309 308
324 325 325 323 323 323 326 326 325 321 320 316 317 314 315 313 311 312 308 307 308 311 312 313 313 312 312 311 307 304 305 304 304 306 306 306 306 306 306 305 305 306 306 307 306 306 308 310 313 321 320 316 315 313 314 313 311 310 309 308 307 308 309 310 308 307 307 307 308 308 308 308 309 308
Wind_Speed
4 1 1 4 4 3 2 1 2 1 1 2 2 1 1 1 1 2 2 4 3 3 6 5 1 7 6 5 5 4 4 5 6 6 6 6 5 8 12 14 15 17 17 17 17 16 15 15 14 14 14 15 15 15 15 15 15 15 15 15 15 15 15 15 15 15 15 15 15 15 16 16 17 17
3 4 4 3 1 3 4 3 3 4 3 3 3 3 3 3 3 2 3 4 2 5 4 5 3 1 3 3 4 4 5 8 8 5 6 6 5 9 11 10 13 15 16 17 17 16 16 16 15 15 14 14 15 15 15 15 16 15 15 15 15 15 14 15 15 15 15 15 15 15 15 16 17 17
5 6 5 3 3 2 2 2 3 2 2 3 4 4 3 3 3 3 2 4 2 2 3 3 5 2 2 4 4 5 5 8 10 7 6 6 9 12 10 12 11 13 15 16 16 16 17 17 17 16 17 16 15 15 17 18 16 16 16 16 15 15 16 16 16 16 15 16 15 16 16 16 17 18
6 7 7 6 4 3 2 2 3 2 1 1 1 1 2 3 3 3 3 3 4 1 4 5 4 5 5 3 3 3 5 7 12 6 7 8 11 9 7 10 12 13 15 17 17 19 19 19 18 18 18 18 19 18 16 18 17 17 17 17 17 17 17 16 16 16 17 17 17 16 16 16 17 18
3 2 2 3 4 3 3 4 3 3 2 1 2 4 4 4 3 3 2 3 4 3 3 4 4 4 5 5 4 5 5 4 6 7 7 8 7 6 6 6 11 14 15 17 19 20 20 20 20 19 19 19 19 19 19 19 19 19 19 19 18 17 17 18 18 18 18 18 17 15 16 16 17 18
3 2 3 3 3 3 4 3 3 2 2 2 3 4 5 6 4 4 3 2 2 5 2 4 4 4 4 6 3 3 3 3 3 5 6 6 6 6 6 6 6 11 13 16 18 19 20 19 19 20 20 20 20 20 20 21 20 20 20 20 19 18 18 19 19 19 19 19 19 19 18 18 17 18
3 4 4 4 2 2 3 3 4 2 2 2 3 3 1 1 1 1 0 1 2 4 5 3 5 5 4 4 5 5 5 4 4 4 4 4 4 5 7 7 6 10 13 13 13 17 18 19 20 21 21 21 21 21 21 21 21 21 20 20 19 20 20 20 20 21 21 20 19 19 18 19 18 18
5 5 4 4 4 3 4 3 3 4 5 4 4 3 1 1 1 0 2 1 2 2 4 4 5 5 5 6 5 4 4 4 4 5 5 5 6 7 5 5 6 8 14 16 16 16 17 19 20 20 20 20 21 21 22 21 21 21 21 21 21 21 22 22 21 21 22 21 21 21 21 21 21 20
5 4 5 4 5 5 4 3 3 3 4 5 3 2 2 3 2 3 3 4 4 5 6 6 5 6 6 6 7 6 6 5 5 4 5 5 6 6 6 5 6 8 12 14 15 17 18 19 19 20 19 20 20 21 22 22 21 22 22 22 22 23 23 22 22 22 22 22 21 21 22 20 20 21
4 4 4 4 3 2 3 2 1 1 2 1 2 2 1 2 2 3 4 4 5 6 6 6 7 6 7 5 6 5 5 6 5 4 5 5 6 7 7 6 6 5 5 5 6 9 14 18 21 19 19 20 21 21 21 22 22 23 23 23 23 23 23 22 22 22 22 22 21 21 22 22 22 21
6 6 5 4 2 3 3 3 2 2 2 2 3 2 3 5 4 4 4 5 5 6 7 7 8 8 6 6 7 6 5 5 5 5 6 7 6 6 6 5 4 4 5 5 9 11 12 14 12 15 19 21 22 22 22 21 22 22 22 22 22 22 22 23 23 23 22 22 22 22 22 21 22 19
6 6 6 5 4 4 3 4 3 3 3 2 3 4 4 4 4 4 3 4 6 6 6 7 7 5 6 5 5 5 4 4 4 5 6 7 7 6 4 5 6 4 5 6 7 9 11 11 13 15 15 15 17 19 19 20 21 22 22 22 23 23 24 24 23 23 23 22 22 22 22 22 22 22
5 3 3 3 5 5 7 7 5 6 5 4 5 4 3 3 3 4 4 5 7 7 7 7 7 7 6 6 6 6 6 6 7 4 4 6 6 5 5 5 4 5 7 7 8 7 7 8 8 7 6 6 9 12 16 15 20 21 20 21 23 24 23 21 21 23 23 22 22 22 22 23 23 23
5 4 4 4 9 10 12 11 11 9 8 7 4 4 4 4 4 5 6 6 6 7 8 8 7 8 8 6 6 6 5 5 4 5 5 6 4 5 6 6 5 5 6 7 7 7 6 8 7 6 7 7 8 7 8 9 11 13 15 17 19 21 21 22 22 23 22 22 22 21 21 22 23 23
6 4 5 4 6 6 7 7 8 7 8 9 9 8 8 7 6 5 7 8 8 7 7 6 7 8 8 6 6 6 6 6 6 4 3 5 5 6 7 8 4 4 7 6 6 8 6 7 8 7 8 9 9 9 9 14 17 19 18 18 19 18 18 17 17 19 20 20 20 21 22 22 22 22
6 6 5 5 3 3 2 1 1 1 3 6 8 9 8 9 9 9 7 7 7 6 7 8 8 8 8 7 6 7 7 4 3 4 5 5 6 6 6 6 7 3 5 8 9 10 7 7 10 9 8 8 8 10 12 15 15 15 18 20 20 19 19 19 18 18 19 21 21 21 21 21 21 22
6 5 4 3 3 4 11 7 0 5 5 7 9 8 8 8 8 8 10 11 9 6 7 9 10 9 8 8 6 4 3 4 7 5 5 4 5 6 7 8 8 7 4 9 11 12 8 6 8 8 7 8 8 10 12 15 16 19 16 13 14 15 17 18 19 20 20 19 19 19 21 21 22 23
5 5 4 4 3 3 3 4 5 6 8 6 6 6 5 5 7 9 12 13 15 13 9 9 10 11 9 9 8 2 3 6 4 3 5 5 7 8 9 9 9 9 6 9 9 11 9 7 8 8 7 9 9 9 12 15 15 13 12 14 16 19 20 20 19 19 19 20 20 21 20 21 22 25
6 6 7 6 6 5 6 7 8 8 7 5 4 3 4 5 6 7 8 8 7 6 7 9 11 11 8 8 7 5 5 2 3 3 6 7 9 9 8 9 8 8 7 9 8 11 7 4 8 8 7 8 8 5 9 13 13 12 14 18 21 22 23 21 19 19 20 20 20 21 23 25 26 27
4 4 5 6 6 7 8 9 13 9 5 3 4 5 6 6 7 8 9 11 10 10 9 7 7 8 6 0 1 1 2 4 3 5 5 5 6 7 7 9 7 7 6 7 8 9 9 4 8 7 8 8 7 5 6 10 14 17 20 22 22 20 17 17 19 22 24 26 26 26 26 27 27 28
3 4 5 7 6 6 6 8 10 10 9 5 6 6 6 5 7 7 6 9 14 16 16 16 13 6 5 7 6 6 7 6 6 5 6 8 8 8 8 8 7 7 6 6 7 8 10 6 8 7 5 6 7 8 9 9 13 17 16 14 16 19 22 25 26 26 25 26 26 26 27 28 28 30
1 6 12 9 6 5 5 9 13 13 8 5 5 5 5 7 6 6 7 6 3 6 8 6 5 6 6 6 8 8 10 12 7 5 8 10 8 8 9 9 7 8 7 8 8 7 6 5 4 7 7 8 7 9 9 9 9 13 14 19 21 21 22 23 23 24 24 26 27 28 29 29 29 22
5 8 8 7 5 4 4 11 11 10 8 5 5 4 5 5 7 2 5 4 5 4 5 4 5 4 5 4 4 6 12 15 13 10 11 10 9 9 9 10 9 8 7 4 5 7 6 7 6 7 9 10 7 7 9 9 9 10 10 11 13 17 21 22 22 23 24 26 27 29 29 30 28 16
8 7 5 6 7 5 6 9 9 8 5 3 3 2 3 5 4 4 5 4 4 4 4 5 5 5 5 6 6 7 8 9 10 12 11 10 8 9 10 10 9 8 4 3 8 7 7 6 9 7 8 11 10 8 9 10 10 11 11 12 12 16 19 19 18 21 23 24 26 27 29 29 27 15
5 5 5 5 8 9 7 7 8 7 5 3 2 2 3 2 2 5 4 6 8 5 5 5 6 6 6 5 4 4 5 7 7 7 6 6 5 4 4 6 7 8 8 7 9 6 7 7 10 8 8 8 10 11 10 11 12 11 10 10 11 11 12 13 13 14 17 22 24 27 28 27 26 18
4 5 5 4 8 11 9 8 8 7 6 4 1 0 3 2 3 3 4 4 5 5 5 5 5 4 4 5 6 6 7 9 7 6 7 7 7 6 6 6 8 8 9 8 10 7 8 8 9 9 8 8 11 10 13 13 13 12 9 10 10 11 12 13 13 13 12 12 13 16 18 21 22 24
3 3 5 5 11 12 11 9 8 7 6 3 2 2 3 3 3 3 3 4 5 6 5 5 6 6 4 4 6 7 6 5 4 5 6 7 8 8 9 9 8 9 8 8 8 9 8 9 8 8 9 8 11 11 11 12 13 13 12 11 12 12 12 12 12 12 12 12 13 19 20 22 25 25
4 6 6 6 13 12 11 9 8 7 6 3 5 7 6 5 2 3 4 5 6 5 5 5 5 5 5 4 4 4 4 4 5 6 6 6 6 7 7 8 9 9 10 9 10 10 10 9 8 7 8 8 10 11 13 12 11 12 15 14 12 11 11 11 11 11 12 12 12 13 12 13 11 11
3 5 9 13 12 11 9 8 6 4 6 9 7 6 6 5 3 4 5 5 4 5 3 4 5 5 5 5 5 3 4 6 6 5 5 6 6 7 7 7 7 7 7 8 8 9 7 5 8 7 7 8 9 10 10 13 13 13 13 15 14 12 13 11 9 10 12 12 12 12 12 12 13 11
11 11 11 12 11 10 8 5 4 4 4 7 9 10 7 4 5 6 5 5 6 4 2 3 4 5 5 5 4 6 7 7 7 6 6 6 5 4 5 7 8 8 9 10 9 7 4 5 8 7 8 9 9 10 11 12 14 14 14 13 13 13 8 10 12 11 11 12 12 13 13 13 14 13
7 8 7 6 6 4 7 4 1 2 3 5 5 5 5 6 7 8 6 7 6 5 4 2 4 4 5 3 4 6 6 6 5 5 4 5 5 5 5 7 9 9 8 7 6 5 5 6 6 6 8 9 9 9 11 11 14 14 14 12 12 14 13 12 11 11 11 12 12 13 13 12 12 13
7 6 7 6 4 4 4 2 2 5 6 7 6 6 7 7 9 9 12 11 5 2 3 3 4 4 2 4 5 5 5 5 5 4 4 4 6 6 6 6 8 8 8 7 4 4 6 6 6 6 7 8 10 10 10 11 12 13 13 12 12 12 12 13 13 12 12 13 14 14 14 12 13 12
6 5 5 5 5 4 4 5 6 7 8 8 8 8 7 8 9 9 8 5 5 6 6 5 2 2 4 5 5 5 5 5 5 4 5 4 6 7 7 8 8 8 7 7 7 7 5 5 5 7 7 7 8 9 10 12 13 11 11 12 12 13 12 12 12 14 15 13 12 12 15 14 12 12
7 6 6 7 7 7 7 8 9 9 10 9 9 8 8 8 7 4 4 3 1 2 4 4 3 4 4 6 5 5 5 6 5 5 6 6 6 6 7 7 7 6 6 7 7 7 6 5 6 7 5 7 8 8 8 10 13 11 10 11 12 13 12 12 13 14 13 11 12 14 14 14 14 11
7 7 7 8 9 9 10 9 6 7 5 4 7 7 7 7 6 1 5 5 4 4 3 2 4 5 5 5 5 6 5 5 5 6 6 5 6 6 6 6 7 7 7 7 8 7 5 6 7 7 7 8 9 4 9 12 10 10 10 11 11 13 13 13 13 13 13 12 9 11 13 13 13 13
5 5 4 4 2 3 2 3 5 5 3 1 1 0 2 3 2 3 4 2 3 2 2 3 4 4 5 5 5 4 4 4 5 5 5 6 6 6 5 6 5 7 7 7 8 7 6 6 5 6 8 10 9 11 11 4 5 7 10 11 12 12 12 13 13 12 11 11 9 9 12 14 14 13
4 4 4 2 2 2 1 4 6 6 4 2 3 2 1 1 3 1 5 5 3 2 2 4 6 6 5 4 3 3 4 5 5 5 6 5 6 6 5 5 6 7 7 7 9 9 4 5 4 5 8 9 9 10 12 9 12 11 6 10 11 11 13 14 14 13 10 10 10 9 11 13 13 12
5 4 2 1 2 2 4 6 6 1 4 4 4 3 3 2 2 3 3 3 2 2 2 2 3 4 4 3 4 5 5 5 5 5 5 6 5 5 5 6 6 6 7 8 9 7 3 4 3 4 6 8 9 10 12 11 10 10 10 8 10 12 12 13 13 13 13 10 10 11 10 11 12 12
2 2 3 3 3 5 5 4 2 3 3 2 2 3 2 2 3 3 4 4 4 4 3 2 2 3 4 5 5 5 5 5 5 5 5 5 5 5 6 6 6 7 8 8 7 5 4 4 4 4 4 6 8 9 10 12 12 12 11 12 8 10 11 12 13 12 12 13 14 11 8 9 14 16
3 3 3 4 4 0 2 2 1 1 1 2 3 2 0 1 2 1 3 4 3 4 4 4 4 5 5 5 4 4 4 4 5 5 5 5 5 6 6 6 7 8 7 7 8 7 4 4 4 4 5 6 8 8 9 10 9 7 8 10 11 10 11 11 12 12 11 11 12 13 14 13 14 13
3 3 5 3 1 2 2 3 3 3 2 3 2 1 1 3 2 4 4 1 1 2 3 4 4 5 6 4 4 4 4 4 5 5 4 5 6 6 8 8 7 6 7 8 8 7 5 5 4 5 6 6 7 7 6 7 9 10 10 10 12 15 15 14 12 11 10 11 11 11 13 14 14 12
5 5 3 2 1 2 2 2 1 2 3 2 1 1 2 2 5 7 5 3 3 4 4 4 5 6 4 3 4 3 4 5 5 4 5 6 7 6 7 6 6 6 7 8 8 7 5 4 5 5 4 5 6 7 9 9 10 10 10 10 10 13 15 16 17 14 9 9 12 12 12 10 8 8
6 3 2 2 2 1 2 2 2 2 2 0 1 1 3 2 4 3 3 1 5 5 6 7 5 2 3 3 3 4 4 5 4 5 7 7 6 6 6 6 6 7 7 7 7 7 6 5 5 5 5 5 5 6 9 9 8 9 10 11 12 12 12 14 17 15 12 15 17 13 11 11 11 12
4 3 2 2 2 2 3 4 4 2 1 2 5 3 1 4 3 2 2 5 5 4 2 2 2 3 3 3 3 4 4 5 5 6 6 5 6 6 6 6 7 7 7 6 7 7 8 7 5 4 4 5 4 7 8 8 9 9 9 10 11 12 13 12 11 12 12 13 18 20 20 17 13 12
3 2 2 3 3 3 2 2 2 2 3 4 4 3 1 0 1 2 3 5 4 3 2 2 2 2 2 3 4 5 5 6 7 5 5 5 5 6 5 7 7 7 7 5 7 8 8 8 7 4 3 2 3 4 5 7 8 8 10 11 12 12 11 11 12 12 11 10 15 21 19 19 19 19
Wind_Direction
271 300 264 209 206 207 244 261 261 230 124 133 137 137 149 130 253 273 286 305 309 318 331 318 71 174 182 178 196 177 193 202 200 188 210 229 230 240 244 236 227 226 228 230 235 238 239 241 241 241 247 252 251 250 251 255 257 261 266 269 272 274 276 277 276 275 275 274 270 270 271 273 275 277
205 239 237 255 224 171 182 216 239 230 185 142 161 182 187 174 201 224 269 284 308 316 320 308 359 320 187 180 187 198 202 211 216 216 224 232 234 241 249 243 232 230 230 232 235 238 241 245 246 247 246 246 248 251 250 248 250 252 256 259 262 264 267 272 273 273 271 270 269 267 265 267 269 271
195 212 230 215 218 218 243 228 227 239 154 164 174 191 170 186 212 246 250 276 246 270 295 302 298 312 216 217 214 213 209 218 218 222 226 226 232 237 243 242 232 232 236 238 237 238 239 241 245 248 249 250 246 246 251 257 254 252 252 255 258 261 265 269 270 271 269 268 265 264 261 262 263 265
197 204 209 210 207 188 202 239 236 228 153 166 110 125 185 191 206 213 234 242 281 262 285 295 304 298 293 252 256 242 219 209 204 208 217 227 231 234 236 237 231 232 234 236 237 238 239 239 240 243 247 251 253 252 251 253 254 255 257 260 261 264 266 268 269 268 269 268 265 261 260 260 258 261
239 212 224 210 191 178 194 207 231 222 176 169 204 205 198 224 221 217 219 263 277 270 262 279 260 271 280 285 267 267 261 227 220 213 216 223 230 231 230 237 239 235 236 236 237 239 239 240 242 244 245 247 250 251 252 254 257 259 261 263 262 262 264 266 267 268 268 268 264 259 257 257 258 262
208 237 239 251 234 199 211 210 217 207 176 190 225 223 206 211 222 190 225 210 242 278 271 273 295 289 274 277 259 277 289 289 253 232 232 234 230 224 220 228 237 239 235 236 241 242 244 243 245 246 247 248 247 248 250 253 255 259 261 263 265 264 264 264 265 266 266 266 266 265 261 261 262 263
216 218 231 238 241 228 226 217 210 184 179 220 251 255 154 142 208 208 157 132 218 264 275 260 279 273 282 285 290 285 272 269 271 285 282 268 255 235 225 228 232 242 253 255 236 238 240 241 243 245 245 246 247 247 248 250 253 256 260 261 262 264 264 264 263 264 264 264 265 265 262 263 263 263
219 228 220 219 227 232 233 214 187 182 187 208 230 230 200 173 247 234 99 140 212 211 264 280 270 278 285 284 276 277 275 273 276 269 266 261 264 272 253 226 230 240 245 250 247 236 230 233 235 239 241 243 244 247 248 249 250 253 256 259 260 261 263 262 261 262 263 263 264 265 265 264 264 262
213 210 213 212 208 223 226 206 206 187 200 202 209 225 203 202 190 148 173 195 203 226 248 264 267 264 260 261 269 271 278 269 259 258 261 265 268 266 265 264 254 261 257 253 249 250 244 239 237 237 239 240 243 245 246 248 250 250 253 255 257 257 259 260 261 261 261 262 261 262 263 262 261 262
210 225 223 206 199 198 199 172 104 299 264 257 235 253 168 155 173 212 224 221 221 226 237 244 267 260 258 257 251 254 250 259 260 263 262 264 265 269 265 253 255 252 247 245 247 247 246 244 241 239 237 240 243 244 245 246 248 249 250 252 255 257 259 260 261 261 260 259 259 259 262 264 264 262
215 211 208 201 188 215 201 180 192 236 288 277 267 177 187 189 195 209 220 223 236 240 247 249 247 256 251 249 265 247 236 241 238 256 275 275 260 248 243 261 259 270 270 268 273 275 274 265 256 239 238 241 242 244 246 246 248 250 252 254 255 256 257 259 260 261 261 260 260 259 260 261 261 257
224 218 198 187 192 208 192 198 200 181 181 183 213 201 201 195 201 227 246 252 254 253 256 255 262 254 266 263 254 258 257 264 255 234 241 252 264 267 260 255 268 264 264 265 267 266 265 262 257 259 257 251 250 251 255 254 253 252 252 252 253 254 253 254 257 259 261 261 260 259 259 258 258 257
205 191 170 180 193 172 142 145 164 183 185 184 193 198 195 199 213 241 247 256 254 256 258 267 264 263 261 263 269 266 257 250 252 247 256 266 256 258 272 272 257 268 275 267 264 261 260 268 266 268 265 257 256 246 239 244 247 249 249 249 248 250 254 257 256 256 258 258 257 256 255 255 255 255
188 191 201 214 223 209 176 185 191 190 189 196 200 192 185 201 216 222 239 245 248 254 257 258 263 262 260 265 267 264 259 262 273 278 273 277 284 288 282 277 262 264 268 275 270 264 264 273 272 264 271 270 261 264 262 265 266 261 253 249 250 252 251 249 248 248 249 250 252 253 253 253 253 253
195 202 213 222 226 195 185 189 201 198 183 194 209 213 213 215 215 236 243 250 253 258 263 268 264 263 266 261 264 277 286 277 278 288 302 296 295 290 292 287 281 244 263 269 279 276 267 273 272 266 267 270 266 264 263 260 257 256 259 267 269 262 254 253 253 254 251 248 247 248 249 250 251 252
190 196 203 211 190 175 166 118 50 318 246 228 227 224 229 228 223 223 235 257 266 263 268 266 265 274 273 282 290 287 289 303 328 292 284 278 283 286 279 278 279 292 315 295 291 282 279 279 273 270 265 266 264 263 261 257 258 262 265 267 272 277 277 273 262 249 242 241 242 244 247 250 252 254
185 182 183 187 197 77 60 51 265 244 237 231 230 232 229 235 235 230 229 231 237 254 261 270 272 266 278 281 274 278 318 355 296 286 276 281 283 282 283 279 285 287 302 296 280 278 278 269 273 272 264 261 263 264 261 257 258 263 270 267 257 260 268 272 265 253 246 245 246 246 246 248 252 257
180 173 177 204 155 129 148 184 218 234 231 217 203 217 223 242 251 243 233 230 228 223 233 247 260 265 262 268 272 308 330 265 267 297 284 290 288 283 277 283 280 277 267 263 277 276 272 261 264 266 269 267 265 258 256 260 268 272 274 285 294 295 292 283 268 255 249 248 248 250 253 256 260 263
189 191 201 199 158 172 189 205 208 230 238 225 216 187 220 242 250 255 256 249 250 234 222 227 242 257 262 263 265 237 224 248 278 274 285 282 277 277 277 269 263 269 249 254 257 271 272 252 268 267 274 277 275 269 278 281 284 291 295 293 290 285 279 275 267 261 260 262 264 267 269 269 266 263
188 189 187 147 174 185 202 214 218 224 237 213 218 231 244 254 257 262 253 247 246 251 256 256 247 249 264 160 270 333 302 277 267 270 270 272 269 276 278 273 272 269 261 254 266 277 283 279 282 287 282 282 286 295 296 299 295 293 289 284 280 278 275 272 273 273 273 273 272 270 268 266 264 261
193 197 194 178 188 188 198 206 214 226 225 231 233 242 248 257 264 265 272 244 239 244 245 246 267 315 322 289 280 271 261 247 260 282 280 270 266 258 264 270 271 271 276 263 257 269 284 287 280 287 291 299 302 299 296 291 287 283 281 284 285 283 284 281 276 273 273 272 271 270 268 265 263 260
252 245 208 191 185 181 202 174 192 201 196 212 228 240 256 263 266 266 272 290 283 259 269 285 270 268 291 278 275 276 268 263 250 230 246 253 263 267 259 268 274 277 275 272 265 272 277 311 332 322 313 304 290 288 286 287 286 286 283 277 273 269 266 267 270 271 271 271 271 271 269 267 263 262
208 228 214 189 189 211 167 167 184 186 193 213 226 241 259 266 268 322 8 341 332 346 334 326 320 304 267 262 250 243 242 244 245 230 238 252 249 257 266 268 276 282 267 266 13 338 326 334 330 325 310 294 293 286 286 285 284 282 282 281 277 269 269 272 273 272 271 270 271 270 268 267 264 258
197 203 190 160 153 166 156 169 179 180 198 235 251 286 280 278 284 15 315 313 320 319 312 304 297 283 270 264 264 260 260 248 234 237 238 237 243 250 255 266 271 275 300 348 7 329 316 321 310 307 292 299 302 297 293 286 283 284 288 284 278 279 279 281 278 273 268 266 266 266 265 262 258 252
190 185 197 160 167 170 171 163 152 144 160 195 264 265 291 17 301 290 309 315 326 307 305 288 273 263 256 254 265 285 271 267 268 257 214 219 231 273 315 322 320 306 302 314 333 314 305 310 292 294 286 279 286 293 290 289 285 284 283 280 283 284 287 287 282 281 275 270 268 268 264 258 250 238
195 183 185 177 171 174 165 157 153 150 158 169 228 80 93 210 279 310 293 293 303 303 288 278 269 285 306 307 291 287 294 291 293 345 349 2 357 334 322 314 306 301 297 301 302 288 288 282 277 284 284 290 288 287 295 293 289 290 286 286 287 287 285 287 284 281 279 283 288 284 274 256 243 239
169 141 178 163 158 166 163 161 159 152 137 157 211 163 238 238 272 282 296 297 287 272 271 278 280 272 262 270 273 269 270 293 341 2 350 340 328 318 305 292 277 275 278 282 282 279 268 269 270 273 280 283 287 290 286 291 298 302 298 295 298 295 291 287 284 285 287 290 289 286 279 266 258 249
180 164 195 157 157 158 157 156 147 140 163 192 175 209 224 239 237 267 265 258 257 267 269 271 291 299 288 291 305 305 329 345 353 335 322 309 297 281 273 270 273 273 275 273 270 264 260 261 270 268 267 274 283 287 290 284 283 296 301 303 299 298 298 293 288 287 286 287 291 289 290 290 275 251
172 123 117 128 146 144 138 129 127 162 211 227 233 236 243 252 257 245 243 249 258 262 288 314 304 307 316 313 304 332 346 327 318 305 287 274 269 268 266 270 272 276 276 275 270 265 259 262 273 271 267 266 270 276 286 293 300 299 299 305 306 309 307 295 288 289 289 286 284 284 286 288 281 262
103 114 119 121 121 122 130 140 188 202 203 214 228 239 240 245 248 243 239 247 235 231 245 277 297 292 293 293 328 336 320 305 285 273 271 272 275 284 295 298 289 277 270 266 262 263 273 282 275 273 278 273 273 286 290 300 301 300 303 301 300 300 288 304 304 299 296 294 293 294 290 285 277 272
95 116 127 143 144 124 174 201 47 244 240 219 222 234 226 230 238 242 224 233 226 211 207 228 258 270 276 304 309 289 278 270 266 259 270 282 285 291 286 287 286 285 275 265 267 280 285 279 275 273 277 282 285 288 293 299 300 300 301 302 311 311 311 305 297 300 303 299 297 291 289 283 276 267
121 118 105 113 150 140 166 197 207 225 229 229 217 218 220 227 231 234 236 236 238 218 179 227 257 266 300 298 283 277 280 281 279 281 283 278 281 276 282 281 279 280 282 280 277 273 282 284 284 280 277 286 290 292 294 293 294 296 298 304 311 306 306 311 311 308 304 305 305 305 298 292 284 283
123 124 146 167 174 185 193 205 217 220 221 223 222 224 219 222 224 224 226 225 214 207 209 211 229 307 298 283 280 279 276 276 282 276 284 277 274 276 266 267 274 279 289 297 295 284 269 270 271 274 279 283 281 283 291 300 296 295 301 308 313 310 312 312 312 309 312 307 302 304 304 299 290 272
157 170 180 189 193 199 206 212 213 215 213 209 210 213 223 230 234 228 241 256 289 80 65 34 350 300 298 284 280 284 283 281 280 289 280 274 268 271 276 278 281 287 291 291 294 292 289 282 284 280 286 291 284 266 276 281 283 295 302 311 312 313 313 314 310 308 307 305 306 311 310 314 314 299
181 185 197 195 196 200 220 223 230 244 214 181 191 205 203 214 235 201 74 63 52 48 18 329 303 285 272 282 283 275 273 288 289 282 269 270 281 279 284 290 296 298 303 305 302 299 299 309 308 308 312 310 311 281 217 238 274 292 304 308 316 315 316 316 313 311 309 305 311 311 315 313 312 319
208 233 242 241 220 263 319 330 279 286 292 284 101 165 283 289 62 60 84 86 85 69 347 310 297 290 283 270 265 275 297 293 287 284 296 291 285 284 286 291 303 308 308 303 305 304 305 308 320 328 325 323 319 316 318 242 261 298 306 310 320 318 316 317 313 310 308 313 314 318 321 314 310 309
217 229 244 258 93 93 205 257 275 263 235 242 269 263 184 73 91 83 153 175 98 52 305 271 263 259 260 270 298 318 305 295 293 294 291 295 291 292 302 314 312 304 306 310 304 295 297 315 335 344 324 317 317 314 303 312 315 309 292 313 318 320 321 320 319 317 318 316 317 327 314 307 302 302
219 224 183 219 254 234 229 248 257 6 40 20 342 352 20 109 234 183 114 79 351 299 268 274 308 314 299 318 322 296 283 279 286 296 301 299 301 314 322 310 305 308 308 299 294 292 325 329 332 324 316 314 317 314 310 316 315 315 318 316 318 319 323 323 322 324 324 326 329 324 313 304 305 307
246 249 244 232 226 244 253 252 76 38 21 25 321 301 315 10 336 47 40 40 3 315 296 304 296 311 319 307 281 277 286 296 306 308 305 303 314 322 312 306 308 303 297 294 297 307 335 325 316 300 292 304 301 296 298 305 306 306 311 315 321 322 326 326 321 324 327 333 332 320 299 289 280 286
221 246 250 249 235 156 17 19 23 89 78 339 319 332 3 215 254 197 92 59 32 17 339 325 310 293 279 273 284 296 296 308 313 307 304 314 321 310 302 302 300 295 295 306 311 310 317 320 300 294 295 284 272 275 283 286 280 292 309 322 334 332 324 326 328 327 335 340 333 334 333 336 341 337
210 207 229 223 69 71 21 11 359 3 338 263 263 133 282 279 353 46 56 38 351 300 291 285 279 275 274 280 298 305 310 312 307 303 318 327 312 302 299 299 296 302 310 309 308 308 321 317 289 274 277 279 283 283 292 312 324 327 328 328 330 336 331 331 332 334 335 341 343 341 342 343 336 335
203 217 194 113 145 142 182 215 230 267 265 286 100 249 311 166 155 148 161 177 240 241 247 260 267 258 270 307 312 317 318 311 301 314 330 316 303 300 301 307 308 313 310 313 312 310 306 312 304 302 295 303 306 323 325 332 329 328 326 327 330 336 338 334 335 340 341 352 352 350 341 334 332 346
201 200 137 121 110 175 184 180 183 238 221 247 297 211 243 305 28 56 13 280 235 222 226 235 242 323 328 301 304 316 315 306 318 327 306 298 304 309 312 312 310 308 311 307 306 315 317 321 321 309 303 303 301 320 327 335 331 329 331 336 338 338 335 338 339 339 344 1 9 4 359 352 346 347
144 159 170 146 196 207 209 204 210 179 41 316 260 256 22 28 353 1 270 258 259 254 261 338 351 301 289 314 334 326 311 312 310 292 295 304 307 310 311 311 314 312 311 311 324 325 318 310 295 278 284 302 327 344 320 336 335 337 340 338 337 342 341 341 343 341 350 4 3 358 356 359 354 338
145 182 184 175 197 224 222 191 131 198 210 237 239 116 119 119 326 283 278 286 294 300 290 279 304 305 313 358 353 309 298 286 281 289 305 309 311 310 312 322 311 313 311 327 330 322 315 309 298 263 238 287 29 311 332 346 333 341 346 349 346 342 341 343 345 346 351 352 358 353 354 358 358 354